Wind_Speed
15 16 16 16 16 16 17 17 18 20 21 21 20 20 19 17 16 17 18 19 22 26 29 32 31 30 30 29 27 24 23 23 22 21 22 21 21 21 22 22 23 23 22 22 22 22 22 21 20 20 19 17 17 16 16 16 15 14 14 14 14 14 15 15 14 13 12 13 11 10 8 7 6 7 8 8 8 7 6 8 9 8 9 8 6
14 14 14 16 17 17 17 17 19 20 21 21 21 21 19 17 17 17 18 20 21 22 26 30 30 29 30 28 26 25 23 23 22 21 21 21 22 21 21 22 23 24 23 22 23 23 22 21 21 20 19 18 17 16 16 16 15 15 15 15 15 15 15 15 15 14 14 15 13 10 8 8 7 8 9 8 8 7 6 7 9 9 9 8 6
12 13 14 15 17 17 18 18 19 21 21 21 22 22 21 19 18 18 19 20 21 21 23 26 28 29 29 28 27 26 24 23 22 21 21 22 22 22 22 24 24 24 24 23 23 23 23 22 21 18 18 18 18 17 17 17 18 17 17 17 16 16 16 15 15 15 15 15 12 10 10 10 9 9 9 8 8 9 8 7 8 8 9 8 7
10 10 12 14 16 17 18 19 20 21 20 19 21 22 21 19 19 19 19 19 20 21 21 22 25 28 29 29 27 26 24 23 23 23 23 22 22 23 24 25 25 24 24 23 23 23 23 22 21 19 18 18 18 18 18 19 19 18 18 17 17 18 17 16 15 16 16 15 12 11 11 11 10 9 9 9 9 10 10 8 8 8 8 9 8
7 8 10 12 14 16 17 18 19 21 20 19 21 22 22 21 21 20 20 21 21 21 21 20 22 26 29 30 27 25 25 25 25 25 25 24 23 24 25 26 25 24 24 24 24 23 23 22 22 21 20 20 19 19 19 19 20 19 18 18 18 18 18 16 16 18 17 15 13 10 9 9 9 10 11 10 10 10 9 10 10 9 9 10 10
5 6 7 8 11 14 14 15 17 17 16 15 15 17 19 21 23 23 22 22 22 21 21 21 23 26 28 29 28 27 27 27 26 26 25 25 25 25 25 25 25 24 24 24 24 23 23 23 23 22 22 21 20 19 19 20 20 19 19 19 18 18 17 16 17 18 17 17 16 13 9 6 6 9 10 10 10 10 9 10 11 11 11 12 11
3 2 3 4 6 7 9 11 14 16 16 15 12 13 15 15 18 21 21 22 22 21 23 24 26 27 28 28 27 27 26 25 24 25 25 25 24 24 25 25 25 25 24 23 23 22 23 24 23 23 24 23 22 21 21 20 20 20 20 20 18 17 18 18 17 18 18 19 18 16 12 8 5 5 7 9 10 10 9 10 11 11 12 12 10
4 4 2 0 2 4 6 10 12 14 17 18 15 15 17 17 18 18 18 19 20 20 22 24 26 27 27 25 25 26 25 24 23 22 23 24 24 24 25 25 25 24 24 23 22 22 23 24 24 24 25 24 23 23 22 21 21 21 21 21 18 18 19 18 17 17 17 17 17 16 14 11 8 4 3 6 7 9 12 12 12 13 13 12 11
8 8 6 4 2 2 5 8 11 14 16 17 15 14 13 13 16 17 17 18 18 18 21 24 26 26 26 24 24 26 26 25 24 22 22 23 23 24 25 25 25 24 24 23 23 22 23 23 24 25 25 25 24 23 23 22 22 22 22 21 19 19 19 18 17 16 13 12 14 15 15 14 11 7 4 6 7 8 11 12 14 15 14 13 12
11 10 9 8 7 5 5 7 10 13 14 14 15 13 8 10 16 19 18 19 17 18 21 24 26 27 26 26 26 27 27 27 26 24 23 22 22 24 25 25 25 24 24 23 23 22 22 22 24 24 25 25 24 23 23 23 23 23 22 21 20 19 18 18 17 15 12 11 12 14 15 14 13 10 8 7 9 10 9 11 15 16 15 15 14
12 9 9 7 5 4 5 6 8 11 12 12 13 11 8 11 16 18 17 18 19 20 22 24 26 27 28 27 27 27 28 28 27 26 25 23 23 24 25 25 24 23 23 22 22 21 21 22 22 24 25 25 25 24 24 23 22 22 22 22 20 19 18 18 18 15 13 12 12 14 15 13 12 10 8 6 8 11 9 9 14 17 15 15 14
14 12 11 8 5 5 6 6 6 8 10 11 11 10 8 11 15 17 18 19 19 21 23 24 26 28 28 28 29 29 28 28 28 27 26 25 25 25 25 24 23 23 24 23 23 22 23 23 23 24 25 26 26 25 24 23 22 22 23 22 20 19 18 18 18 17 15 13 13 13 14 13 12 10 8 7 7 9 9 8 11 16 15 15 14
18 17 16 13 12 12 12 11 9 8 10 10 10 10 9 10 13 14 16 18 19 21 22 22 24 27 28 29 29 28 28 27 27 27 27 25 24 24 25 25 24 24 24 24 24 24 24 24 25 26 26 25 25 25 25 24 23 24 24 23 21 19 18 18 18 17 15 14 13 13 14 13 12 11 10 8 7 9 10 10 10 14 16 16 15
20 20 18 17 17 16 15 14 13 12 12 13 12 12 12 11 11 10 10 11 14 17 20 20 20 23 26 28 28 27 26 26 25 26 27 24 22 22 24 25 26 25 24 24 24 25 26 25 25 25 25 24 24 26 26 26 25 25 24 23 21 19 18 18 18 17 15 14 14 14 14 13 12 12 11 9 8 8 11 11 11 12 15 15 15
21 20 19 18 17 15 15 14 13 13 13 13 13 13 13 12 11 11 10 11 12 14 18 20 22 22 23 25 26 24 22 23 24 26 26 23 21 21 21 23 26 25 24 24 23 25 27 26 25 24 23 23 24 26 28 28 26 24 23 22 20 18 18 18 18 17 16 15 14 14 13 13 13 13 12 10 9 8 9 10 10 12 15 15 15
19 20 19 19 17 15 14 13 13 13 12 13 13 12 13 13 13 13 12 12 13 14 17 19 23 24 23 23 25 25 23 21 23 26 26 23 20 19 18 19 22 22 20 22 23 25 25 24 23 22 22 22 23 26 28 27 25 23 23 23 20 18 18 18 18 17 16 15 14 13 13 14 13 13 12 11 10 9 9 9 10 11 14 16 17
19 20 20 19 18 16 15 14 13 13 12 11 10 11 13 14 15 15 14 14 15 15 16 18 21 23 25 25 25 25 25 24 24 24 24 23 21 19 20 20 19 17 16 19 22 22 22 22 22 22 22 22 24 25 26 25 24 24 25 24 21 19 18 18 17 17 16 16 15 14 13 13 14 13 13 12 11 11 10 10 10 9 12 15 17
20 20 20 19 19 18 17 16 14 13 12 11 11 11 11 12 14 15 16 17 17 17 15 15 16 20 23 23 20 20 23 24 25 22 19 20 20 19 19 19 18 18 17 19 20 20 20 21 22 22 22 23 24 25 26 26 24 24 25 24 22 20 18 18 18 17 16 16 15 15 14 14 14 14 13 12 12 12 11 11 10 9 10 12 14
21 20 20 20 19 18 17 17 16 14 13 12 11 10 9 9 11 12 14 16 17 18 16 13 13 15 17 16 16 20 24 24 23 21 19 19 19 18 18 19 21 21 21 20 21 21 20 20 21 22 22 23 24 25 26 26 24 24 25 24 21 20 19 19 19 18 17 16 15 15 16 15 15 14 14 13 12 12 12 11 11 10 10 10 12
21 21 20 20 19 18 17 17 16 15 14 13 12 11 10 10 11 12 14 13 13 14 15 14 12 11 13 13 13 19 23 23 23 23 22 21 18 16 17 19 22 23 22 21 20 20 20 19 20 21 22 23 23 23 24 24 23 24 25 24 22 21 20 19 20 19 18 17 16 16 16 15 15 14 14 14 13 12 11 11 12 12 10 10 11
21 21 20 19 18 17 16 16 16 15 15 14 13 13 12 12 11 12 13 14 13 13 13 14 12 11 12 12 11 13 17 20 23 24 23 22 19 17 17 19 22 23 22 20 19 19 19 18 19 20 21 22 22 23 23 24 23 24 24 24 23 22 21 20 20 20 19 18 17 16 16 15 14 14 15 14 13 13 12 12 12 12 11 11 11
20 20 20 20 18 17 16 15 15 15 15 15 15 15 14 13 12 12 12 13 14 13 13 14 14 13 12 11 10 10 12 16 21 22 22 22 20 19 19 21 22 23 22 20 20 20 20 19 20 21 21 21 21 23 24 23 23 25 24 23 22 21 20 21 20 19 18 18 17 16 15 15 15 15 15 15 14 14 14 14 12 12 12 12 12
19 19 20 21 21 19 18 17 16 16 17 18 18 17 17 16 15 14 13 13 12 12 11 13 14 14 14 14 13 12 12 13 16 17 18 19 19 20 22 22 22 22 22 21 22 21 21 21 21 20 20 20 21 23 24 23 23 24 23 21 19 19 19 19 19 18 17 17 17 16 15 15 15 15 16 16 15 15 15 15 14 13 14 14 13
19 18 20 21 22 21 21 21 20 20 21 21 22 22 21 20 20 19 17 15 14 13 11 11 13 14 14 15 16 15 15 15 16 15 15 17 19 21 22 22 22 23 22 22 24 24 22 22 21 20 20 21 22 23 23 23 24 24 21 19 18 17 18 17 17 16 16 16 17 16 16 16 16 16 16 16 16 16 16 16 15 15 15 15 15
18 18 20 21 22 22 22 22 23 23 24 25 26 25 25 25 25 24 22 19 17 16 14 12 12 14 14 15 16 17 18 18 18 17 16 16 17 19 20 21 23 24 23 24 26 26 25 23 22 21 21 22 23 23 22 23 24 23 20 18 18 17 16 16 15 15 15 16 15 15 15 15 15 16 17 17 17 17 17 16 16 15 15 15 15
18 19 21 22 22 21 21 22 23 24 26 27 27 27 27 27 27 27 26 23 21 20 19 17 14 12 13 14 15 17 18 19 19 19 19 18 18 19 20 21 23 24 24 25 28 28 25 23 22 22 22 23 23 23 22 22 22 21 18 18 18 17 15 15 15 15 14 14 13 12 12 13 14 14 15 16 17 17 17 16 15 15 14 14 16
17 19 21 21 22 21 21 21 22 24 25 25 26 26 27 27 28 28 28 27 26 25 25 25 22 16 13 13 14 15 17 18 18 19 20 20 20 22 23 23 24 24 24 26 29 29 25 23 23 24 24 24 23 23 23 22 20 19 18 18 18 17 16 15 15 14 14 13 12 11 11 11 12 13 14 15 16 17 17 16 15 14 13 15 16
17 20 21 22 22 21 21 22 22 23 23 23 24 26 27 28 28 28 29 29 29 28 29 30 29 22 15 14 15 15 16 17 16 17 19 22 23 23 24 25 26 26 26 27 30 29 25 24 25 26 26 25 23 24 24 21 19 19 19 19 19 18 16 16 15 14 13 13 12 11 10 9 10 11 13 13 14 15 15 15 14 13 13 15 15
18 20 21 21 22 22 22 23 22 23 23 25 27 29 30 30 29 29 29 29 29 30 30 32 31 27 21 17 15 16 17 16 15 14 15 19 22 23 24 26 28 29 28 29 30 28 26 27 28 28 27 25 24 23 22 20 19 21 21 19 18 17 17 16 15 14 14 14 13 11 9 8 9 11 13 13 13 13 13 13 14 13 13 15 16
18 19 20 21 21 22 23 24 24 25 26 29 31 31 32 32 31 31 31 30 30 30 31 32 32 30 28 24 20 16 16 16 14 13 13 15 18 20 21 24 26 27 29 31 31 29 28 29 29 28 27 25 24 22 21 20 20 21 20 18 17 17 18 17 16 15 14 14 13 11 9 9 9 12 13 12 13 13 11 12 13 13 13 13 15
17 18 19 20 21 23 24 25 25 26 28 29 30 31 32 32 32 33 32 32 31 30 31 32 32 32 31 29 26 21 17 14 13 12 12 13 14 15 16 19 22 25 30 32 30 29 30 30 29 28 27 25 23 22 21 20 20 20 19 18 17 18 18 17 16 15 14 13 13 11 10 10 10 12 13 13 13 12 10 10 12 12 12 13 15
17 18 18 19 21 23 24 25 26 26 27 28 29 30 31 32 33 33 32 31 30 30 31 31 31 32 32 31 29 25 20 16 12 11 11 13 15 15 15 19 24 28 31 32 30 31 31 31 29 28 27 25 23 22 20 19 19 20 19 18 17 17 18 18 16 15 14 13 12 9 9 10 10 12 13 13 12 11 10 10 12 12 12 13 14
18 18 18 19 20 21 22 24 25 25 26 27 27 28 29 29 30 30 30 29 29 29 29 30 30 31 32 31 28 25 22 19 16 13 13 14 16 18 20 24 28 31 31 31 31 32 32 30 28 27 26 24 22 21 20 19 19 19 19 18 17 16 17 18 17 15 15 13 10 8 7 8 10 11 12 12 12 11 10 10 11 11 12 12 12
17 18 19 19 20 20 21 22 23 24 24 24 25 26 26 27 27 27 27 27 26 26 26 28 31 32 32 31 27 23 19 18 17 16 15 16 17 21 26 29 31 32 31 30 31 31 30 29 27 26 25 23 22 22 21 19 18 18 18 17 16 16 17 18 17 16 15 13 10 8 6 6 8 10 10 10 10 9 9 9 11 11 11 11 11
17 18 19 20 20 20 21 22 22 23 23 23 25 26 26 26 26 26 26 26 26 25 26 29 31 33 33 30 27 22 17 15 14 15 16 16 17 22 28 30 31 30 27 26 29 31 30 29 27 26 26 25 24 23 21 19 17 16 16 16 16 16 17 18 18 17 15 13 11 9 6 4 6 7 7 7 7 7 8 10 12 12 11 12 11
15 16 17 18 19 20 20 20 20 21 22 23 25 26 26 27 26 26 26 26 27 27 28 30 31 32 32 29 24 20 16 13 11 12 15 16 17 22 25 26 26 27 26 26 28 29 30 30 30 29 29 29 26 24 22 20 17 16 15 16 16 16 17 19 19 17 16 14 12 10 6 4 4 6 7 7 7 7 8 10 12 12 12 12 11
12 13 13 14 15 16 16 17 18 19 21 23 24 24 25 26 27 27 28 28 29 30 31 30 30 31 30 27 22 18 15 11 8 9 12 13 16 20 21 20 21 24 27 28 27 28 29 29 30 30 29 27 26 25 23 20 17 15 14 14 15 16 17 18 18 18 16 15 13 11 8 6 5 6 8 9 9 9 9 11 12 12 12 12 10
12 12 12 12 12 12 14 15 16 18 20 21 22 22 23 25 26 28 29 30 31 31 31 31 29 28 27 24 20 16 13 11 9 7 7 8 12 14 15 15 17 21 23 23 25 28 28 28 29 29 27 25 25 24 22 19 17 15 13 13 14 15 15 16 17 17 17 15 14 13 11 9 7 7 8 10 10 10 12 12 11 10 10 9 8
14 14 14 13 12 12 12 13 15 17 19 20 20 20 21 23 25 26 28 30 31 31 30 30 28 25 24 22 20 15 12 10 9 7 5 3 4 9 13 13 14 18 22 23 23 24 23 22 23 24 24 23 22 21 19 18 16 14 13 12 13 13 14 15 16 17 17 16 15 14 13 11 9 8 9 9 9 9 10 10 8 7 8 8 8
15 16 16 15 15 14 14 15 15 16 16 17 18 19 20 22 22 24 26 28 29 28 27 26 26 24 22 20 19 17 12 9 7 6 8 10 9 8 10 14 15 17 20 20 18 17 17 17 17 17 17 17 17 17 17 16 15 14 13 11 11 11 12 14 15 16 16 16 16 15 13 12 10 10 10 10 9 8 8 8 7 6 6 7 8
15 16 16 17 17 17 17 17 16 15 15 15 16 18 19 20 21 22 24 24 24 25 25 24 24 23 22 20 18 17 15 12 9 6 3 8 10 7 6 9 12 13 15 17 17 15 16 15 14 13 13 14 14 14 14 14 13 13 12 10 9 9 10 13 15 17 17 17 16 15 14 13 12 11 11 10 9 8 8 8 8 7 6 6 7
13 15 16 18 18 18 19 19 18 17 16 15 15 16 18 19 20 22 22 21 21 22 23 23 22 21 21 21 18 16 15 14 12 9 6 1 5 9 9 8 9 11 12 14 14 13 12 12 12 13 13 13 14 14 13 13 13 11 11 11 10 10 11 13 15 17 18 17 16 15 14 13 13 12 11 10 9 9 8 8 7 6 5 5 5
13 14 15 17 18 18 19 20 20 20 19 17 16 16 16 17 19 20 19 18 19 20 20 22 22 21 20 20 19 17 14 14 12 10 8 7 4 1 5 7 8 9 9 10 10 11 13 13 14 15 15 16 16 16 15 15 14 13 12 12 11 12 13 13 14 16 17 16 15 14 13 12 11 10 9 9 8 7 6 5 5 5 5 4 4
12 14 14 16 17 18 19 19 19 20 20 20 19 19 18 18 18 17 16 16 17 18 19 20 21 21 20 19 18 17 15 14 13 11 11 12 11 6 4 5 4 5 6 8 9 12 14 15 15 16 17 18 18 18 18 17 16 15 14 14 13 13 14 13 13 14 15 15 13 13 12 11 10 8 8 7 7 6 6 6 5 5 4 4 4
11 12 14 15 16 16 17 19 19 20 20 21 21 20 20 21 21 19 17 16 16 17 18 19 19 19 19 19 17 16 16 16 16 14 13 16 16 13 13 14 13 12 11 11 10 10 11 13 12 13 14 16 17 17 18 18 17 16 15 15 14 13 13 11 10 11 11 11 10 10 9 9 8 7 7 7 6 6 6 5 4 4 3 3 3
10 11 12 13 13 14 16 18 19 20 20 21 21 20 19 19 21 21 22 21 19 18 17 17 17 17 17 16 16 16 15 14 15 16 17 18 19 19 18 18 18 17 16 15 14 13 11 11 10 10 10 11 12 13 14 15 14 13 12 12 11 11 10 8 7 8 8 9 9 8 7 7 7 6 5 5 5 5 5 4 4 3 3 2 2
9 9 10 10 11 13 15 17 18 19 19 20 21 21 20 18 19 21 22 23 23 22 20 18 18 17 16 15 15 16 15 13 12 12 14 15 15 15 14 14 14 13 12 12 11 11 10 10 10 11 12 12 11 10 10 11 10 8 7 6 5 5 5 4 4 6 7 7 8 7 7 6 5 5 4 4 4 5 4 4 3 3 2 2 2
8 9 9 10 11 12 14 15 16 17 18 19 20 21 21 19 19 20 20 21 23 23 22 21 20 18 17 16 15 14 14 15 14 12 11 11 10 9 8 11 13 13 11 10 10 10 11 10 9 9 10 11 12 12 12 12 12 11 10 9 7 6 5 3 3 4 5 5 6 6 6 5 4 4 3 3 3 3 3 3 3 3 3 3 3
8 9 10 10 11 11 12 14 14 15 16 17 17 19 20 19 18 18 19 20 21 21 21 21 20 19 19 19 17 15 13 13 13 13 13 12 12 10 10 11 14 14 14 13 13 14 14 13 11 10 10 11 13 13 13 13 13 13 12 11 10 8 6 5 5 4 2 2 3 3 3 3 2 2 2 2 2 3 3 4 5 5 4 4 4
8 9 9 9 10 10 11 12 12 13 15 16 16 16 17 17 17 17 18 19 19 19 19 19 19 19 18 18 18 18 17 15 14 13 12 12 12 11 11 11 12 12 12 12 12 12 13 13 12 11 12 14 16 16 15 14 14 13 11 11 10 8 7 6 6 5 3 1 0 1 1 2 1 2 3 4 5 6 6 6 6 5 5 4 4
8 8 9 9 9 9 10 10 11 12 13 15 15 15 15 14 14 15 17 18 18 18 18 17 17 17 16 16 16 16 17 17 17 17 15 14 13 12 12 13 13 13 13 13 13 12 12 12 12 12 13 14 15 16 15 12 10 10 10 10 8 7 7 6 6 6 4 2 1 1 1 2 3 4 5 6 7 7 6 6 5 5 4 4 4
Wind_Direction
223 224 227 228 229 230 229 229 231 229 227 233 242 243 239 235 232 231 231 235 237 237 237 235 235 235 233 230 227 222 215 215 218 217 217 218 219 221 223 223 220 217 217 218 215 210 210 211 210 207 208 209 204 202 205 209 211 212 214 217 223 231 232 229 228 231 234 227 219 218 216 203 207 212 212 218 217 222 238 227 217 219 214 210 213
220 221 224 223 223 223 225 226 227 228 228 235 242 242 240 238 234 232 232 236 237 238 240 240 240 240 237 232 230 226 218 217 219 217 217 219 221 223 221 220 219 215 214 217 217 214 212 215 216 214 215 214 207 208 214 218 218 218 220 222 224 231 236 233 231 228 223 221 214 203 190 179 196 215 214 212 213 226 238 234 236 227 210 209 209
214 217 220 219 218 218 220 220 221 225 229 236 242 240 238 238 236 232 233 238 241 242 244 244 242 242 239 233 233 231 224 221 223 222 221 221 222 224 223 220 219 217 215 216 218 217 214 215 219 219 219 217 210 212 219 224 224 222 222 224 223 227 230 229 233 230 221 218 210 198 186 179 194 213 216 215 213 221 225 230 243 224 203 205 202
211 215 220 217 214 215 217 218 219 223 225 230 238 239 238 239 238 235 235 242 248 250 251 248 241 239 237 234 235 236 231 226 225 225 225 224 224 225 223 221 219 218 217 217 218 218 217 217 220 223 222 220 216 217 223 227 229 226 224 224 224 227 226 223 228 228 223 218 205 195 190 191 204 206 203 214 218 220 216 213 221 215 204 203 198
213 219 225 221 215 214 219 222 226 228 227 230 239 244 247 248 247 245 245 250 256 260 259 252 241 236 235 234 235 237 234 229 227 227 226 224 225 225 223 221 219 219 219 219 219 220 220 220 221 223 224 223 222 223 226 228 230 228 226 226 225 228 229 226 224 221 220 220 219 211 196 203 218 205 198 212 220 220 209 201 209 211 204 201 200
214 227 227 222 219 218 223 230 235 237 241 250 256 260 260 256 251 250 255 260 262 266 266 257 246 239 237 237 237 237 236 233 231 232 231 228 226 226 224 222 221 220 220 220 222 222 222 221 223 224 224 225 225 226 227 228 229 229 229 228 229 230 231 228 228 224 213 209 219 224 215 217 220 202 201 206 210 216 206 197 205 204 197 199 202
186 204 210 218 222 223 227 233 239 241 247 259 276 300 305 295 273 260 260 267 267 268 268 263 255 249 246 245 241 239 240 241 241 242 242 238 233 229 225 224 223 222 221 221 224 226 224 222 224 225 225 225 225 226 226 226 229 233 231 229 229 232 232 228 230 230 215 205 212 220 222 227 227 210 205 198 197 202 202 200 199 193 192 198 201
79 67 51 2 225 225 230 234 241 244 246 253 266 291 305 307 295 275 265 266 266 265 266 264 259 254 253 253 247 243 243 245 247 249 249 246 240 233 228 226 225 224 223 222 226 228 225 223 224 226 226 225 226 226 226 226 230 233 232 230 228 231 233 230 230 232 224 215 216 218 221 224 233 243 213 200 201 194 194 198 196 191 193 197 196
62 57 50 37 2 283 266 257 255 253 254 264 279 288 288 282 275 272 266 260 255 255 256 255 254 251 252 254 250 247 245 245 249 254 256 252 244 238 233 229 228 228 227 226 228 228 225 223 224 226 226 225 226 227 226 227 229 232 232 230 227 228 231 230 230 234 234 231 228 224 222 220 225 233 215 204 212 204 199 200 197 194 194 196 195
56 54 53 42 25 358 316 289 271 261 259 274 294 295 273 246 250 259 266 260 252 252 251 249 249 249 251 253 250 248 248 248 252 257 262 259 250 245 242 236 232 232 232 232 233 232 226 223 224 226 225 225 227 229 228 226 227 230 231 230 227 225 227 228 229 231 234 236 238 234 228 225 226 229 226 213 212 217 219 212 203 197 193 192 192
49 50 51 42 21 338 304 295 282 272 267 271 285 286 251 230 245 256 262 261 259 259 255 250 250 252 255 257 254 251 250 252 255 259 264 265 260 254 250 245 240 237 237 237 239 237 231 227 226 227 227 226 227 229 228 225 224 227 229 230 228 224 224 227 226 226 228 228 231 235 234 237 240 239 246 253 235 229 230 221 209 202 195 191 189
48 49 47 44 25 357 347 342 322 300 290 279 278 283 259 239 252 261 259 258 260 264 265 260 257 257 259 262 261 257 255 255 257 259 263 266 267 263 257 252 247 242 239 239 240 237 234 231 229 228 228 226 225 227 227 224 223 225 228 229 228 224 223 225 225 222 221 221 221 227 234 242 247 245 248 269 273 254 243 235 218 207 199 194 192
45 43 42 43 37 27 20 11 3 349 336 325 309 303 289 262 265 273 270 264 260 261 266 268 266 265 264 265 264 261 260 259 259 262 264 267 270 271 268 263 255 246 242 242 241 237 234 233 231 231 229 225 224 226 225 223 224 225 226 225 223 223 221 223 226 223 219 220 219 221 229 235 239 238 239 252 271 258 242 239 228 214 204 197 194
41 38 38 39 37 34 30 23 17 8 0 355 342 331 321 299 291 300 303 296 283 272 269 270 271 273 273 272 268 265 267 268 269 270 270 271 274 277 279 275 266 256 248 247 246 241 236 234 234 235 234 231 229 229 227 225 226 228 229 226 221 220 220 221 224 224 219 220 221 221 225 227 229 231 232 241 253 245 237 236 229 215 205 199 197
35 36 40 41 39 37 33 28 23 12 1 353 347 345 341 327 314 309 308 312 310 296 284 274 267 268 274 277 276 276 279 279 277 275 273 274 278 279 279 278 276 269 258 252 250 244 237 234 236 237 236 234 233 232 230 228 228 230 232 230 223 217 219 220 221 222 220 220 221 224 225 222 221 225 229 237 244 239 239 242 236 217 199 195 200
30 33 37 42 43 42 39 38 33 23 7 349 342 343 342 333 322 316 311 310 308 303 298 285 271 265 266 269 270 274 280 282 277 272 272 275 279 280 280 281 284 282 270 261 256 249 242 239 238 236 234 233 234 235 234 232 231 231 229 228 224 215 215 218 218 219 220 220 221 223 225 221 218 222 229 237 240 236 239 241 240 230 210 200 201
26 30 33 37 40 41 41 41 36 32 23 11 3 354 343 332 324 323 323 319 312 304 301 295 284 277 273 268 268 270 274 277 277 274 273 273 273 275 277 278 281 281 275 269 265 259 253 246 238 233 230 231 234 238 238 236 236 235 230 224 219 214 213 215 216 216 217 218 218 219 222 221 219 222 227 234 237 234 235 233 229 233 229 218 210
25 30 34 36 37 36 36 38 38 37 33 28 22 4 345 332 325 325 322 317 313 308 306 302 292 284 277 271 268 270 270 269 270 272 274 271 267 269 271 270 271 270 268 270 269 264 257 247 236 230 228 229 234 239 239 237 236 236 232 223 216 213 213 213 213 212 212 215 216 218 220 219 218 221 224 232 238 234 230 230 228 230 236 233 228
24 26 29 31 34 32 30 31 30 29 26 22 18 3 344 334 331 331 326 321 316 311 311 310 300 288 281 270 256 257 264 269 268 266 265 266 267 272 270 265 266 266 265 269 268 262 254 245 235 230 228 228 233 237 237 236 233 231 230 225 217 212 211 212 211 211 212 215 217 218 219 218 215 217 221 227 233 230 225 225 227 231 237 238 237
24 23 23 25 28 27 25 23 20 18 15 9 2 352 344 343 338 334 329 325 320 311 306 306 303 291 281 273 257 254 261 270 271 263 260 260 264 271 269 265 266 266 266 267 263 254 248 243 236 230 227 229 231 233 232 230 228 228 227 222 216 212 210 210 212 213 216 218 219 219 220 218 215 216 219 223 224 222 222 222 221 226 236 239 237
27 24 23 21 22 21 19 16 10 9 7 1 355 349 345 343 337 331 326 322 319 311 299 296 298 291 279 273 269 266 265 270 270 265 261 259 261 264 263 263 265 267 268 264 253 244 240 236 231 227 226 227 231 232 228 224 225 229 226 220 215 210 208 210 212 216 219 221 221 221 220 219 218 218 217 219 221 220 221 220 217 220 227 234 234
29 27 26 26 24 20 16 10 4 1 360 357 354 350 349 348 345 342 333 324 321 314 300 291 290 290 285 276 272 270 266 266 267 266 263 260 260 261 260 261 262 265 268 262 247 238 233 229 226 224 225 227 232 232 225 222 226 227 224 220 216 209 208 210 212 215 219 221 221 220 220 219 219 218 215 217 223 225 225 222 218 219 223 227 228
28 26 28 30 30 26 21 16 12 9 7 7 6 3 1 357 354 351 346 337 329 320 305 291 286 284 282 279 276 270 263 263 268 271 269 264 261 260 259 258 256 259 263 257 244 235 229 226 225 225 226 226 227 226 221 220 223 223 220 218 213 208 209 212 213 217 219 220 221 219 217 217 217 217 216 220 225 226 226 226 222 221 222 225 223
25 26 29 31 31 29 27 25 22 20 19 19 20 18 16 12 6 0 355 348 339 330 317 299 286 280 277 275 273 268 261 261 266 272 271 264 260 257 254 250 250 253 255 250 240 233 228 224 223 226 225 220 219 219 218 218 220 220 216 212 210 209 213 215 216 220 221 221 221 217 215 218 220 221 222 224 226 225 224 225 224 222 224 228 225
23 26 30 32 32 30 30 30 27 26 25 25 24 23 21 18 14 10 5 0 355 348 338 323 300 283 276 272 269 267 263 260 262 266 267 262 256 252 248 243 243 247 248 243 237 232 228 223 222 224 221 217 216 216 215 216 219 220 214 208 210 213 217 219 217 218 221 221 218 216 217 222 224 224 225 225 227 226 225 226 226 226 228 230 229
25 27 31 33 34 32 31 31 30 28 26 24 22 20 18 17 15 12 9 8 8 4 358 351 336 310 288 276 269 266 266 265 264 263 264 261 253 248 245 240 236 239 242 238 233 231 228 223 221 219 215 215 215 214 214 214 218 221 213 206 209 213 216 219 215 213 214 213 211 211 214 220 223 223 224 225 228 230 230 230 229 229 231 231 231
28 29 31 31 33 33 32 32 32 30 27 23 20 18 16 15 13 11 8 7 7 5 4 1 355 342 318 298 285 273 268 266 265 263 262 258 253 247 244 241 237 237 240 235 229 227 225 220 217 214 212 213 213 213 215 215 217 220 216 209 208 209 211 212 208 204 205 204 204 204 206 212 217 220 221 222 227 232 233 233 233 231 231 230 230
29 29 29 28 30 31 31 32 32 31 28 23 19 17 16 15 13 10 6 4 3 2 0 359 357 353 337 313 301 290 281 272 266 262 257 254 253 251 248 246 242 240 240 233 226 223 220 214 210 210 211 211 211 214 215 213 212 215 215 210 205 204 205 203 197 196 199 198 193 189 192 201 208 215 220 220 224 231 232 232 234 232 228 227 227
26 27 26 25 25 26 27 28 28 27 25 20 16 14 13 11 10 9 6 3 1 359 356 355 356 356 350 336 319 305 299 292 281 271 260 253 252 251 250 248 244 241 238 230 223 220 215 209 207 208 208 208 210 213 212 209 209 212 211 204 199 199 199 194 190 189 190 189 188 186 191 202 206 211 216 217 218 223 226 229 233 232 230 229 227
23 23 21 21 21 22 24 24 22 21 20 17 15 13 11 9 7 7 5 3 0 356 354 355 355 352 349 345 338 325 313 304 294 285 275 264 256 252 250 247 245 241 235 226 217 213 211 208 207 205 202 204 207 206 206 208 210 210 206 198 194 193 191 187 185 185 186 188 191 196 206 218 220 216 216 216 217 220 223 225 226 224 225 229 229
21 19 16 16 18 20 21 21 19 19 18 16 14 13 11 9 8 6 4 1 359 355 353 354 354 349 344 340 339 337 326 311 297 289 289 284 275 269 259 252 247 241 232 221 210 206 207 207 206 202 199 200 201 199 202 207 206 202 197 192 189 188 187 187 187 188 191 195 200 208 221 231 230 222 217 215 218 224 219 214 218 217 214 220 227
19 17 16 16 18 19 18 18 18 18 17 15 13 12 11 10 8 5 1 360 358 354 352 354 354 351 345 341 339 338 334 324 313 307 308 302 289 280 269 257 247 237 228 217 205 200 203 201 199 198 196 196 195 194 197 199 197 193 188 184 185 187 189 190 192 194 198 201 206 215 225 229 226 220 217 216 220 223 212 208 217 219 215 219 224
24 21 20 20 20 20 19 17 16 17 17 15 12 11 11 10 7 2 359 360 359 355 354 357 359 356 349 344 343 341 334 325 320 319 317 303 283 268 259 252 243 232 222 211 202 199 199 195 192 191 189 188 190 192 192 191 189 187 185 184 186 190 192 193 195 197 199 202 206 208 212 219 218 213 214 217 220 221 216 213 218 222 223 222 214
31 28 27 26 25 24 22 20 18 16 15 14 13 11 10 9 6 1 0 3 2 359 359 2 5 2 355 350 350 344 329 315 313 314 308 295 276 255 244 238 232 223 213 202 198 197 194 190 186 184 182 182 188 193 191 189 188 187 188 190 192 194 194 195 196 198 199 202 205 204 206 214 212 206 207 213 217 218 219 218 216 218 219 209 196
32 31 30 28 27 25 23 21 19 15 13 13 13 11 9 8 5 2 3 6 7 7 10 11 10 7 1 356 356 347 327 310 306 303 294 283 264 245 236 229 220 211 200 197 199 196 191 186 180 179 180 182 187 193 192 190 191 192 193 196 198 199 198 197 196 196 198 201 204 205 209 211 204 198 195 199 205 208 211 211 208 205 201 194 191
29 28 27 27 27 25 23 20 18 15 14 15 13 10 9 9 8 8 9 12 12 13 15 16 14 10 4 1 2 353 331 310 297 289 284 273 249 234 228 221 209 194 188 199 205 195 188 185 179 180 185 184 184 190 191 191 193 195 196 198 199 201 202 199 198 199 201 203 203 204 206 206 197 191 187 184 185 192 200 202 198 189 181 181 180
28 25 23 24 23 23 23 20 17 17 16 16 14 10 9 11 13 14 15 16 16 17 17 16 15 13 6 2 6 3 342 319 302 291 280 258 233 221 214 205 193 186 190 200 201 191 187 186 181 184 188 183 180 185 188 188 193 196 199 201 200 201 202 204 206 208 208 207 206 203 201 201 195 190 189 184 179 181 186 189 186 182 181 182 181
30 24 21 19 16 17 19 16 16 18 18 16 14 11 10 12 16 18 18 18 20 19 17 16 15 13 8 4 6 11 2 346 341 333 303 258 220 202 189 183 186 189 190 193 190 185 185 183 179 182 184 179 177 181 184 187 193 197 202 206 207 206 206 207 211 212 211 211 209 204 202 202 195 187 192 196 193 191 192 194 193 193 200 205 207
34 28 24 21 18 17 15 13 16 20 19 17 14 12 13 15 17 18 19 20 21 20 17 15 14 12 10 7 6 11 14 7 10 30 45 64 149 149 141 148 171 174 168 167 170 171 173 172 171 173 176 176 177 180 184 189 193 194 198 206 211 213 214 214 215 215 213 211 209 206 204 200 191 181 185 196 200 197 198 204 207 205 208 209 208
42 38 36 33 30 27 23 21 22 22 20 18 16 16 18 19 18 19 21 21 20 18 16 15 13 10 10 10 8 9 13 12 17 55 94 100 99 103 120 136 149 151 150 157 163 168 173 172 167 168 171 175 180 183 185 190 192 192 196 202 210 217 221 219 216 215 214 209 204 203 198 191 186 181 180 185 190 185 185 194 200 200 201 200 201
48 48 46 44 42 39 36 32 29 25 22 20 21 22 24 24 23 24 25 22 17 14 11 11 12 11 10 12 11 10 12 11 8 10 72 119 125 130 142 150 149 147 157 172 176 177 182 178 173 177 179 177 181 183 184 187 189 191 193 194 198 211 221 222 216 211 209 204 198 195 191 184 183 183 180 181 184 182 182 189 196 200 203 205 208
54 52 48 47 47 45 43 41 37 33 30 25 24 26 29 31 30 31 29 22 16 14 10 9 13 15 14 15 14 12 15 18 19 13 1 29 150 157 166 177 174 164 173 187 182 179 193 195 189 191 190 183 180 180 181 182 179 178 182 184 192 205 215 221 217 204 198 195 191 188 185 182 181 181 181 182 185 187 190 194 199 206 213 217 222
52 49 47 46 46 45 45 43 41 39 36 32 29 28 28 31 34 33 30 24 20 17 12 10 15 20 22 22 20 18 20 22 25 34 40 33 23 129 166 175 177 172 187 211 209 205 210 201 184 181 183 179 175 172 171 171 169 172 179 184 195 204 204 209 212 203 193 190 189 186 184 184 185 186 187 190 193 199 206 212 219 227 231 229 231
52 50 48 45 42 42 44 43 40 39 37 34 32 32 31 31 29 25 22 21 19 16 12 12 16 21 25 28 27 27 30 32 33 39 59 65 55 44 69 91 109 140 166 187 189 191 191 178 162 159 162 163 165 166 168 169 170 175 180 182 189 195 191 192 200 197 187 184 187 188 186 186 190 193 199 207 213 220 227 231 230 225 220 216 218
53 51 48 44 41 42 43 42 40 38 36 34 32 33 36 36 32 26 21 15 10 5 4 8 12 18 24 29 32 35 38 43 47 50 61 73 75 77 81 81 81 87 98 106 112 128 150 154 146 140 140 144 150 155 161 164 165 167 170 173 179 184 183 185 193 190 181 178 186 191 188 187 190 196 206 217 220 220 220 218 210 202 199 202 209
56 50 45 42 43 43 41 39 38 35 35 34 31 31 34 36 36 35 33 28 21 13 10 12 15 18 23 29 34 39 40 42 47 58 71 81 85 87 90 90 88 88 93 97 97 99 110 121 121 113 111 120 133 142 150 155 156 157 160 164 170 175 177 180 187 187 183 182 185 186 188 192 197 198 203 209 202 190 181 176 173 173 180 192 201
49 41 38 35 37 37 36 34 34 32 33 34 33 31 30 31 33 35 35 35 33 30 27 26 26 26 28 32 37 42 45 46 51 62 76 85 87 85 83 80 76 76 84 93 96 98 101 104 108 104 97 95 101 108 116 120 118 116 121 125 135 148 154 163 177 184 185 181 179 179 181 186 189 186 186 183 166 153 148 146 145 146 151 156 156
47 42 39 34 31 31 32 31 30 29 29 31 33 32 29 28 30 32 33 34 35 34 32 31 32 33 34 36 38 42 48 52 58 67 78 85 86 79 68 64 65 65 67 74 78 80 79 78 86 98 100 98 97 93 94 97 92 85 81 76 71 75 80 95 138 165 173 169 166 168 168 167 168 171 173 166 153 144 139 131 125 124 123 114 102
51 46 43 38 32 27 26 26 26 25 24 24 27 30 28 27 29 32 35 36 35 33 32 31 31 34 36 38 39 41 43 46 50 57 63 68 74 77 75 75 74 69 63 62 63 65 64 61 62 73 86 93 92 85 82 86 87 84 80 75 72 71 72 86 105 110 125 147 152 162 167 164 167 170 163 148 131 114 109 111 110 106 98 88 76
42 40 39 39 36 29 25 24 23 22 22 21 21 24 26 27 30 32 34 35 34 31 30 30 29 31 33 35 37 41 44 44 44 45 46 46 50 56 61 64 63 55 46 43 46 55 62 63 63 69 80 89 91 85 78 78 84 87 85 82 84 86 85 90 89 72 46 30 174 220 202 175 148 127 111 105 104 101 102 103 100 96 90 79 66
27 31 31 28 30 30 27 25 22 19 20 21 21 21 22 24 27 28 27 27 28 27 27 27 27 27 27 26 29 37 44 46 47 48 47 43 40 40 43 47 48 47 45 45 46 52 62 70 74 77 83 92 99 100 98 95 96 98 92 86 89 93 89 79 63 36 6 333 292 239 177 128 102 98 100 100 101 102 103 101 97 94 90 78 69
Height
1495 1496 1498 1499 1500 1502 1503 1504 1505 1506 1507 1507 1507 1506 1506 1506 1506 1506 1505 1505 1506 1506 1507 1507 1508 1510 1512 1514 1517 1518 1518 1518 1520 1523 1526 1528 1530 1532 1534 1537 1539 1541 1542 1543 1544 1545 1545 1545 1546 1547 1548 1549 1550 1551 1553 1554 1555 1557 1558 1559 1560 1561 1562 1562 1563 1564 1565 1566 1567 1568 1569 1570 1571 1571 1572 1572 1573 1573 1574 1574 1574 1575 1576 1576 1577
1495 1496 1497 1498 1499 1500 1502 1503 1504 1505 1506 1505 1505 1504 1505 1506 1505 1504 1504 1504 1504 1505 1506 1507 1508 1510 1511 1514 1518 1519 1518 1518 1519 1522 1525 1527 1528 1530 1532 1534 1536 1538 1539 1541 1542 1543 1544 1544 1544 1546 1547 1549 1550 1550 1552 1553 1554 1555 1556 1558 1559 1560 1561 1561 1562 1563 1564 1565 1566 1567 1568 1569 1570 1570 1570 1571 1572 1572 1573 1573 1573 1574 1575 1576 1576
1495 1496 1497 1497 1498 1500 1501 1502 1502 1503 1504 1504 1503 1503 1503 1504 1503 1503 1504 1503 1504 1505 1506 1507 1508 1510 1511 1514 1517 1519 1519 1519 1520 1522 1523 1525 1526 1528 1529 1531 1533 1535 1537 1538 1540 1541 1542 1543 1543 1545 1546 1547 1548 1549 1550 1551 1553 1554 1556 1557 1558 1559 1560 1560 1561 1562 1563 1564 1565 1566 1567 1568 1569 1569 1569 1570 1571 1571 1572 1573 1573 1573 1574 1575 1576
1496 1497 1498 1498 1498 1500 1500 1501 1502 1502 1502 1502 1502 1502 1502 1502 1503 1504 1504 1505 1506 1507 1508 1508 1509 1510 1511 1513 1515 1517 1518 1519 1520 1520 1521 1523 1524 1526 1527 1529 1531 1533 1535 1537 1538 1539 1540 1541 1542 1544 1545 1546 1547 1548 1549 1550 1551 1553 1555 1556 1557 1558 1558 1559 1560 1562 1563 1564 1564 1565 1566 1567 1567 1568 1568 1569 1569 1570 1571 1572 1573 1573 1574 1574 1575
1497 1498 1498 1499 1500 1500 1501 1502 1503 1502 1503 1503 1503 1504 1504 1505 1505 1506 1507 1508 1510 1510 1510 1509 1509 1509 1511 1512 1514 1516 1516 1517 1517 1518 1519 1521 1522 1524 1525 1527 1529 1531 1533 1535 1536 1538 1539 1540 1541 1542 1544 1545 1546 1547 1548 1549 1550 1552 1553 1555 1556 1557 1558 1558 1559 1560 1562 1563 1563 1564 1565 1565 1565 1566 1567 1568 1569 1569 1570 1571 1572 1573 1573 1574 1575
1498 1498 1499 1500 1501 1502 1503 1504 1503 1503 1504 1504 1506 1508 1508 1507 1507 1508 1510 1512 1513 1513 1512 1512 1511 1511 1511 1512 1513 1514 1515 1516 1516 1517 1518 1519 1521 1522 1524 1526 1528 1529 1531 1533 1534 1536 1537 1538 1539 1540 1542 1544 1545 1546 1547 1548 1549 1551 1552 1554 1555 1556 1557 1558 1558 1559 1560 1561 1562 1562 1563 1563 1563 1564 1566 1567 1568 1568 1569 1570 1571 1572 1573 1573 1574
1498 1499 1500 1501 1502 1503 1503 1503 1503 1503 1504 1505 1507 1510 1510 1509 1509 1509 1511 1513 1514 1514 1514 1514 1514 1514 1513 1513 1514 1514 1515 1516 1517 1517 1518 1519 1521 1522 1524 1525 1526 1528 1529 1531 1532 1533 1534 1536 1537 1538 1540 1542 1543 1545 1545 1547 1548 1550 1551 1552 1553 1555 1555 1556 1557 1558 1559 1559 1560 1561 1561 1562 1563 1563 1565 1565 1566 1568 1568 1569 1570 1571 1572 1573 1574
1500 1500 1502 1502 1503 1503 1503 1503 1503 1504 1505 1507 1508 1510 1511 1511 1512 1511 1511 1512 1513 1514 1514 1514 1514 1515 1515 1515 1514 1514 1515 1516 1516 1517 1518 1519 1520 1521 1523 1524 1525 1526 1528 1529 1530 1530 1532 1533 1535 1537 1538 1540 1541 1542 1544 1545 1547 1548 1549 1549 1551 1553 1553 1555 1556 1556 1557 1558 1558 1559 1560 1561 1562 1563 1563 1564 1565 1566 1567 1568 1569 1570 1571 1573 1573
1502 1502 1503 1503 1504 1504 1504 1504 1505 1506 1507 1508 1509 1509 1509 1510 1510 1510 1510 1510 1511 1512 1512 1512 1513 1513 1514 1514 1514 1513 1513 1514 1515 1516 1517 1518 1519 1520 1521 1522 1523 1524 1526 1526 1526 1527 1529 1531 1533 1535 1536 1537 1539 1540 1542 1543 1545 1546 1547 1548 1549 1551 1552 1553 1555 1555 1556 1556 1557 1558 1559 1560 1561 1562 1563 1563 1564 1565 1566 1567 1568 1569 1571 1572 1573
1504 1504 1504 1505 1505 1506 1506 1506 1507 1507 1507 1508 1509 1509 1507 1507 1506 1507 1507 1508 1509 1509 1510 1510 1511 1511 1512 1512 1512 1512 1512 1513 1514 1515 1516 1517 1518 1519 1519 1520 1521 1523 1524 1524 1524 1524 1526 1528 1531 1533 1534 1536 1537 1538 1540 1541 1543 1544 1545 1546 1548 1549 1550 1551 1553 1554 1555 1555 1556 1557 1558 1559 1560 1560 1561 1562 1563 1564 1565 1565 1566 1567 1569 1571 1572
1506 1506 1506 1506 1506 1506 1506 1506 1506 1506 1506 1507 1507 1507 1506 1505 1505 1505 1505 1507 1507 1507 1508 1509 1509 1510 1510 1510 1510 1510 1511 1512 1513 1514 1515 1516 1516 1517 1517 1518 1520 1521 1522 1522 1523 1524 1525 1527 1529 1531 1533 1534 1536 1537 1538 1540 1541 1543 1543 1545 1546 1547 1548 1550 1551 1552 1553 1554 1555 1556 1556 1557 1558 1559 1560 1561 1562 1563 1564 1564 1565 1566 1568 1570 1571
1508 1508 1507 1507 1507 1506 1506 1506 1506 1506 1505 1505 1505 1505 1505 1505 1505 1505 1505 1506 1506 1506 1507 1508 1508 1509 1509 1510 1510 1510 1510 1510 1511 1512 1513 1514 1515 1516 1516 1517 1519 1520 1520 1520 1521 1522 1524 1525 1527 1529 1530 1532 1534 1535 1537 1538 1540 1541 1541 1543 1544 1545 1546 1548 1549 1550 1551 1552 1553 1554 1555 1556 1557 1559 1559 1560 1561 1562 1563 1564 1564 1566 1567 1568 1570
1510 1510 1509 1508 1508 1507 1507 1507 1506 1506 1505 1505 1504 1504 1504 1504 1504 1504 1504 1505 1506 1506 1506 1507 1507 1508 1508 1509 1509 1510 1510 1510 1510 1511 1512 1513 1514 1515 1516 1517 1518 1518 1518 1519 1520 1521 1522 1524 1525 1526 1528 1531 1533 1534 1536 1537 1538 1539 1539 1540 1542 1543 1545 1546 1547 1549 1550 1551 1552 1553 1554 1555 1556 1557 1558 1559 1560 1561 1562 1563 1564 1565 1566 1567 1569
1512 1511 1510 1509 1509 1508 1508 1508 1507 1507 1506 1505 1505 1505 1505 1504 1504 1504 1504 1504 1504 1505 1505 1506 1507 1507 1507 1508 1508 1509 1509 1510 1511 1511 1511 1511 1513 1515 1516 1518 1518 1518 1518 1517 1518 1519 1520 1521 1523 1525 1528 1531 1533 1533 1535 1536 1536 1537 1537 1538 1539 1541 1543 1544 1546 1547 1548 1549 1550 1551 1552 1553 1555 1556 1557 1558 1559 1560 1561 1562 1563 1564 1565 1566 1567
1513 1513 1512 1511 1511 1510 1509 1509 1508 1508 1507 1506 1506 1506 1505 1504 1503 1503 1502 1503 1502 1503 1503 1504 1505 1505 1505 1506 1506 1507 1508 1509 1510 1510 1509 1509 1510 1511 1514 1515 1516 1517 1517 1516 1515 1516 1516 1518 1520 1523 1526 1530 1532 1532 1533 1534 1534 1535 1536 1537 1538 1539 1541 1542 1544 1545 1546 1547 1549 1550 1551 1552 1553 1555 1556 1557 1558 1559 1560 1561 1562 1562 1564 1565 1567
1515 1514 1513 1512 1512 1511 1510 1510 1509 1509 1508 1508 1507 1507 1506 1504 1503 1502 1502 1502 1502 1502 1502 1502 1502 1502 1502 1503 1504 1504 1506 1508 1508 1508 1507 1507 1508 1508 1510 1511 1513 1515 1515 1514 1513 1513 1514 1516 1518 1521 1524 1527 1529 1530 1531 1532 1533 1534 1535 1535 1536 1538 1540 1541 1542 1543 1545 1546 1547 1548 1549 1550 1552 1553 1554 1556 1557 1558 1559 1560 1561 1561 1562 1564 1565
1517 1516 1515 1514 1513 1512 1511 1510 1510 1509 1509 1509 1508 1507 1506 1504 1503 1502 1501 1502 1501 1501 1501 1500 1500 1501 1501 1501 1502 1502 1503 1505 1505 1506 1506 1505 1505 1506 1507 1508 1509 1512 1513 1512 1511 1512 1514 1516 1517 1519 1521 1523 1525 1527 1529 1531 1532 1533 1533 1534 1535 1537 1538 1539 1541 1542 1543 1544 1545 1546 1547 1549 1550 1551 1553 1554 1556 1557 1558 1559 1560 1561 1561 1562 1564
1519 1518 1517 1516 1514 1513 1513 1511 1511 1510 1510 1509 1508 1507 1506 1505 1504 1502 1501 1500 1499 1499 1499 1499 1499 1500 1499 1500 1501 1501 1500 1501 1502 1504 1504 1502 1502 1503 1505 1505 1507 1509 1510 1511 1510 1511 1512 1515 1515 1517 1518 1520 1522 1524 1525 1528 1529 1530 1532 1534 1534 1535 1536 1538 1539 1540 1541 1542 1544 1545 1546 1547 1548 1550 1551 1553 1554 1555 1557 1558 1559 1560 1560 1561 1562
1520 1519 1517 1516 1515 1514 1513 1512 1512 1511 1510 1509 1508 1507 1506 1505 1504 1502 1501 1500 1498 1497 1497 1497 1497 1498 1498 1498 1499 1499 1498 1499 1500 1501 1502 1501 1501 1502 1502 1504 1506 1507 1508 1508 1509 1509 1510 1512 1513 1515 1516 1518 1520 1521 1523 1526 1527 1528 1530 1533 1533 1533 1535 1536 1537 1538 1539 1541 1542 1543 1544 1545 1547 1548 1550 1551 1553 1554 1555 1556 1557 1558 1559 1560 1561
1521 1520 1519 1517 1516 1515 1513 1512 1512 1511 1510 1509 1508 1507 1506 1504 1503 1502 1501 1500 1499 1497 1495 1495 1496 1496 1496 1496 1496 1496 1497 1497 1497 1498 1500 1501 1501 1501 1501 1503 1504 1505 1506 1506 1507 1507 1508 1510 1511 1513 1515 1516 1518 1519 1521 1523 1524 1525 1528 1530 1531 1531 1533 1534 1536 1537 1538 1539 1540 1541 1543 1544 1545 1547 1548 1550 1551 1552 1554 1555 1556 1557 1558 1559 1560
1522 1521 1519 1518 1516 1515 1514 1513 1512 1511 1510 1509 1507 1507 1505 1504 1503 1502 1501 1500 1499 1498 1497 1496 1496 1496 1495 1495 1495 1496 1497 1496 1495 1495 1497 1500 1501 1501 1501 1502 1503 1504 1504 1504 1505 1506 1507 1509 1510 1512 1513 1515 1516 1518 1520 1521 1522 1524 1526 1527 1527 1528 1531 1532 1534 1535 1536 1538 1539 1540 1541 1542 1544 1545 1547 1548 1549 1550 1552 1553 1555 1556 1557 1558 1559
1523 1521 1520 1518 1516 1515 1514 1513 1512 1511 1510 1508 1507 1506 1505 1504 1503 1502 1501 1499 1498 1498 1497 1496 1496 1496 1495 1494 1494 1495 1496 1495 1493 1493 1495 1498 1500 1500 1500 1501 1502 1502 1503 1503 1503 1504 1506 1507 1508 1510 1511 1512 1515 1516 1518 1519 1520 1522 1524 1524 1524 1527 1529 1530 1532 1534 1535 1536 1538 1539 1540 1541 1542 1544 1545 1546 1548 1549 1550 1552 1553 1554 1555 1556 1557
1523 1522 1520 1518 1516 1515 1515 1513 1512 1511 1509 1508 1507 1506 1505 1503 1502 1501 1500 1499 1497 1496 1496 1495 1495 1494 1494 1494 1493 1494 1494 1493 1492 1493 1494 1495 1496 1497 1498 1499 1500 1500 1501 1501 1501 1502 1504 1505 1506 1508 1509 1510 1513 1515 1516 1518 1519 1521 1522 1523 1524 1526 1528 1529 1531 1532 1534 1535 1537 1538 1539 1540 1541 1542 1544 1545 1546 1547 1548 1550 1551 1553 1554 1554 1556
1524 1522 1521 1519 1517 1516 1515 1513 1512 1511 1510 1509 1507 1506 1504 1502 1501 1500 1499 1497 1496 1495 1494 1494 1493 1492 1492 1492 1492 1492 1492 1491 1492 1492 1492 1492 1492 1493 1494 1496 1497 1497 1498 1498 1499 1500 1501 1502 1504 1506 1507 1509 1511 1513 1514 1516 1518 1519 1520 1521 1523 1525 1526 1528 1530 1531 1532 1534 1535 1537 1538 1539 1540 1541 1542 1543 1544 1545 1546 1548 1549 1551 1552 1553 1554
1524 1523 1521 1519 1518 1517 1515 1514 1513 1511 1510 1509 1507 1506 1504 1503 1501 1500 1498 1497 1495 1494 1493 1492 1491 1491 1490 1490 1489 1489 1489 1489 1490 1490 1490 1489 1489 1490 1490 1492 1493 1493 1494 1495 1495 1497 1498 1500 1501 1503 1506 1508 1510 1511 1512 1514 1516 1516 1518 1519 1521 1523 1525 1527 1528 1530 1531 1533 1534 1535 1537 1538 1539 1540 1540 1541 1542 1543 1544 1546 1547 1548 1550 1551 1552
1525 1523 1521 1520 1519 1517 1516 1515 1514 1512 1511 1510 1509 1507 1506 1504 1502 1500 1498 1496 1495 1493 1492 1491 1490 1489 1488 1488 1487 1486 1485 1486 1487 1487 1487 1487 1487 1487 1487 1488 1489 1489 1490 1491 1492 1493 1495 1497 1499 1501 1504 1506 1508 1509 1511 1512 1514 1514 1515 1517 1519 1521 1523 1525 1527 1529 1530 1531 1533 1535 1536 1537 1537 1538 1539 1540 1540 1541 1543 1544 1545 1546 1548 1549 1550
1525 1524 1522 1521 1519 1518 1518 1516 1514 1513 1513 1512 1511 1509 1507 1505 1502 1500 1498 1496 1494 1493 1491 1490 1489 1487 1486 1485 1484 1484 1483 1482 1483 1484 1483 1483 1483 1483 1483 1484 1486 1486 1487 1488 1488 1490 1493 1495 1496 1499 1502 1504 1506 1508 1509 1511 1512 1512 1514 1516 1518 1520 1522 1524 1526 1527 1529 1531 1532 1533 1535 1535 1536 1537 1537 1538 1539 1540 1541 1542 1543 1545 1546 1547 1548
1525 1524 1523 1522 1521 1520 1519 1517 1516 1515 1514 1513 1512 1510 1507 1505 1502 1499 1497 1495 1493 1491 1489 1488 1487 1486 1484 1483 1481 1481 1480 1479 1480 1480 1480 1479 1479 1479 1480 1481 1482 1483 1484 1485 1486 1488 1490 1492 1494 1497 1499 1501 1504 1506 1507 1509 1510 1512 1513 1515 1517 1519 1521 1523 1525 1526 1528 1529 1531 1532 1534 1534 1535 1535 1536 1537 1538 1538 1540 1541 1542 1543 1544 1545 1546
1526 1525 1524 1523 1522 1521 1520 1518 1516 1515 1513 1512 1510 1508 1506 1503 1501 1499 1496 1494 1492 1490 1488 1487 1485 1484 1483 1481 1479 1478 1477 1477 1477 1477 1477 1476 1476 1476 1476 1477 1477 1478 1479 1481 1484 1487 1488 1490 1492 1494 1497 1499 1502 1504 1506 1508 1509 1511 1513 1514 1516 1518 1520 1522 1524 1525 1527 1528 1530 1532 1532 1533 1534 1534 1534 1535 1536 1537 1539 1540 1541 1542 1543 1543 1544
1526 1525 1525 1524 1522 1521 1520 1518 1516 1514 1512 1511 1508 1507 1505 1502 1500 1498 1495 1493 1490 1489 1487 1485 1484 1482 1481 1479 1478 1476 1475 1474 1474 1473 1473 1473 1473 1473 1473 1473 1473 1474 1476 1478 1481 1484 1486 1488 1490 1492 1494 1497 1500 1503 1505 1507 1509 1510 1512 1513 1515 1517 1519 1521 1523 1525 1526 1528 1529 1530 1531 1532 1533 1533 1533 1534 1535 1536 1538 1539 1539 1540 1541 1542 1543
1527 1526 1525 1524 1522 1521 1519 1518 1516 1514 1512 1510 1509 1507 1505 1503 1501 1498 1495 1493 1490 1488 1486 1484 1483 1481 1479 1477 1475 1474 1472 1472 1471 1470 1470 1470 1470 1470 1470 1470 1470 1472 1474 1476 1478 1480 1483 1486 1489 1491 1493 1496 1499 1501 1504 1506 1508 1510 1512 1513 1515 1517 1519 1521 1522 1524 1526 1527 1528 1529 1530 1531 1531 1532 1532 1533 1533 1534 1536 1537 1538 1538 1539 1540 1541
1529 1527 1526 1524 1522 1521 1519 1518 1517 1515 1513 1512 1510 1508 1506 1504 1502 1499 1497 1494 1491 1489 1486 1484 1483 1480 1478 1475 1473 1471 1470 1469 1469 1468 1468 1467 1467 1467 1468 1467 1468 1470 1472 1475 1477 1479 1481 1484 1487 1489 1491 1495 1498 1501 1503 1505 1507 1509 1511 1513 1515 1516 1518 1520 1522 1524 1525 1526 1527 1528 1529 1530 1530 1531 1531 1531 1532 1533 1534 1535 1536 1537 1537 1538 1539
1530 1529 1527 1525 1524 1522 1521 1520 1518 1517 1515 1513 1512 1510 1508 1506 1504 1502 1499 1496 1492 1489 1487 1485 1483 1480 1477 1474 1471 1469 1468 1467 1467 1466 1466 1466 1466 1466 1466 1466 1467 1468 1470 1474 1476 1478 1480 1483 1485 1488 1491 1494 1498 1501 1503 1505 1507 1509 1511 1513 1514 1516 1518 1520 1522 1523 1525 1526 1527 1528 1528 1529 1529 1530 1530 1530 1531 1532 1533 1534 1535 1535 1536 1536 1537
1531 1530 1528 1527 1525 1524 1523 1522 1520 1519 1517 1516 1514 1512 1510 1508 1506 1504 1500 1497 1493 1491 1488 1485 1483 1480 1477 1474 1471 1469 1468 1467 1466 1465 1465 1465 1465 1465 1465 1465 1465 1466 1468 1472 1475 1476 1479 1482 1484 1487 1490 1493 1497 1501 1503 1505 1507 1508 1510 1512 1514 1516 1518 1520 1521 1523 1524 1526 1526 1527 1527 1528 1528 1529 1529 1530 1530 1531 1532 1533 1534 1534 1535 1535 1537
1532 1531 1529 1528 1526 1525 1524 1523 1521 1520 1519 1517 1515 1513 1511 1509 1507 1504 1501 1498 1495 1492 1489 1486 1483 1481 1478 1474 1472 1470 1468 1467 1466 1465 1465 1464 1464 1464 1463 1463 1464 1465 1468 1471 1473 1475 1479 1481 1484 1487 1489 1493 1496 1500 1502 1504 1506 1508 1510 1512 1514 1515 1517 1519 1521 1523 1524 1525 1526 1526 1527 1527 1527 1528 1529 1529 1530 1531 1532 1532 1533 1534 1534 1535 1537
1533 1532 1530 1529 1528 1526 1525 1524 1523 1522 1520 1518 1516 1514 1512 1510 1507 1505 1502 1499 1496 1493 1490 1487 1484 1482 1480 1476 1474 1472 1470 1469 1467 1466 1465 1464 1464 1463 1463 1463 1464 1466 1469 1472 1473 1476 1478 1480 1483 1486 1488 1491 1495 1499 1501 1504 1506 1508 1509 1511 1513 1515 1517 1518 1520 1522 1523 1524 1525 1526 1526 1526 1527 1527 1528 1529 1530 1530 1531 1532 1533 1534 1535 1535 1536
1534 1533 1531 1530 1529 1528 1527 1526 1525 1523 1521 1519 1517 1515 1513 1511 1508 1505 1503 1500 1497 1494 1492 1489 1487 1485 1482 1480 1477 1475 1473 1471 1469 1467 1466 1465 1464 1464 1464 1464 1465 1467 1470 1473 1475 1477 1478 1480 1483 1487 1488 1490 1494 1498 1501 1503 1505 1507 1509 1511 1513 1514 1516 1518 1520 1521 1522 1523 1524 1525 1525 1526 1526 1527 1528 1529 1530 1530 1531 1532 1533 1534 1535 1536 1537
1535 1534 1532 1531 1530 1529 1528 1527 1526 1524 1522 1520 1518 1516 1514 1511 1509 1507 1504 1501 1498 1496 1494 1492 1490 1488 1486 1483 1481 1478 1476 1474 1472 1470 1469 1467 1466 1466 1466 1466 1467 1469 1472 1474 1476 1479 1481 1482 1484 1487 1488 1490 1493 1497 1500 1502 1504 1507 1508 1510 1512 1514 1516 1517 1519 1520 1521 1522 1523 1524 1525 1526 1526 1527 1527 1528 1529 1530 1531 1532 1533 1534 1535 1536 1537
1535 1534 1533 1531 1531 1530 1529 1528 1526 1524 1523 1521 1519 1517 1515 1513 1511 1509 1507 1504 1501 1499 1497 1495 1493 1492 1490 1487 1485 1482 1480 1478 1476 1474 1472 1471 1471 1470 1469 1469 1471 1472 1474 1476 1479 1481 1484 1486 1487 1487 1489 1491 1493 1496 1499 1502 1504 1506 1508 1510 1512 1513 1515 1516 1518 1519 1519 1521 1522 1523 1524 1525 1526 1527 1527 1528 1529 1530 1531 1532 1533 1534 1534 1535 1536
1536 1535 1534 1533 1532 1531 1530 1528 1527 1525 1524 1522 1520 1518 1516 1514 1512 1511 1509 1507 1505 1503 1502 1500 1498 1495 1493 1491 1488 1486 1484 1482 1481 1479 1477 1475 1476 1476 1475 1475 1476 1477 1477 1479 1483 1485 1486 1488 1489 1490 1491 1492 1494 1496 1499 1501 1503 1505 1507 1509 1511 1513 1514 1515 1516 1517 1518 1519 1520 1522 1523 1524 1526 1526 1527 1528 1529 1530 1531 1531 1532 1533 1534 1534 1535
1537 1536 1535 1534 1533 1532 1531 1530 1528 1527 1525 1523 1521 1519 1517 1515 1514 1512 1511 1510 1509 1507 1505 1503 1501 1498 1496 1494 1491 1489 1487 1485 1484 1483 1482 1480 1479 1480 1480 1481 1481 1481 1482 1483 1485 1487 1489 1490 1490 1492 1493 1494 1495 1497 1499 1501 1503 1505 1506 1508 1510 1512 1513 1514 1515 1516 1517 1518 1519 1521 1522 1523 1525 1526 1526 1527 1528 1529 1530 1531 1532 1532 1533 1534 1535
1538 1538 1537 1536 1535 1534 1533 1531 1530 1529 1527 1525 1523 1521 1519 1517 1516 1514 1513 1513 1512 1510 1508 1506 1504 1502 1499 1497 1495 1493 1491 1489 1487 1486 1485 1484 1483 1482 1483 1483 1484 1485 1486 1487 1488 1489 1490 1491 1492 1493 1495 1495 1496 1497 1499 1501 1503 1505 1506 1508 1509 1511 1512 1513 1514 1514 1515 1517 1518 1520 1521 1522 1524 1525 1526 1527 1528 1529 1530 1530 1531 1532 1533 1533 1534
1540 1539 1538 1538 1537 1536 1534 1533 1532 1531 1529 1527 1524 1522 1521 1520 1518 1517 1516 1515 1514 1512 1510 1508 1506 1504 1502 1500 1498 1496 1494 1492 1491 1489 1488 1488 1487 1486 1486 1486 1486 1486 1488 1489 1490 1491 1493 1494 1494 1495 1496 1496 1496 1497 1498 1501 1503 1505 1506 1508 1509 1510 1512 1513 1513 1514 1515 1516 1517 1519 1520 1522 1523 1524 1525 1526 1527 1528 1529 1529 1530 1531 1531 1532 1532
1541 1541 1540 1540 1538 1537 1536 1535 1534 1532 1530 1528 1526 1524 1523 1522 1521 1520 1519 1517 1515 1514 1512 1510 1508 1507 1505 1503 1501 1499 1497 1495 1494 1493 1491 1490 1490 1490 1490 1490 1490 1489 1490 1491 1492 1494 1495 1496 1496 1496 1496 1496 1496 1497 1498 1500 1502 1504 1506 1507 1509 1510 1511 1513 1513 1514 1514 1515 1516 1518 1519 1521 1522 1523 1524 1525 1526 1527 1528 1528 1529 1529 1530 1530 1531
1543 1542 1542 1541 1540 1539 1538 1537 1536 1534 1532 1530 1528 1526 1525 1524 1523 1522 1520 1519 1517 1515 1514 1512 1511 1509 1508 1506 1505 1503 1501 1499 1498 1497 1495 1494 1493 1493 1493 1493 1493 1493 1493 1495 1496 1496 1497 1497 1497 1497 1497 1496 1496 1497 1499 1500 1502 1504 1505 1507 1509 1510 1511 1513 1514 1514 1514 1515 1516 1518 1519 1520 1521 1522 1524 1525 1525 1526 1526 1527 1527 1528 1528 1529 1530
1544 1544 1544 1543 1542 1541 1540 1538 1537 1535 1534 1532 1530 1529 1528 1527 1526 1524 1522 1520 1519 1517 1516 1514 1513 1511 1510 1509 1508 1506 1505 1503 1502 1501 1499 1498 1498 1497 1496 1496 1496 1496 1497 1498 1498 1498 1498 1498 1499 1499 1499 1498 1498 1499 1499 1501 1502 1504 1505 1507 1509 1510 1511 1512 1513 1514 1515 1516 1517 1518 1519 1520 1521 1522 1523 1524 1524 1525 1525 1526 1526 1526 1527 1528 1529
1546 1546 1545 1544 1543 1542 1541 1540 1538 1537 1536 1534 1533 1532 1530 1529 1528 1526 1524 1523 1521 1519 1518 1516 1515 1513 1512 1511 1510 1509 1508 1506 1505 1504 1503 1502 1502 1501 1500 1500 1500 1500 1501 1500 1500 1500 1500 1500 1501 1501 1501 1500 1500 1500 1501 1502 1503 1505 1506 1508 1509 1510 1511 1512 1514 1515 1517 1517 1518 1519 1520 1520 1521 1522 1522 1523 1523 1524 1524 1524 1525 1526 1526 1527 1528
1547 1547 1546 1545 1544 1543 1542 1541 1540 1539 1538 1536 1535 1534 1532 1531 1530 1528 1527 1525 1523 1522 1521 1519 1517 1516 1514 1513 1512 1511 1511 1510 1508 1507 1506 1505 1505 1505 1504 1504 1504 1504 1504 1503 1503 1503 1502 1502 1502 1502 1502 1502 1502 1503 1503 1504 1505 1507 1508 1510 1511 1511 1512 1513 1515 1517 1518 1518 1519 1519 1520 1520 1520 1521 1521 1522 1522 1523 1523 1523 1524 1525 1526 1527 1527
1548 1547 1546 1546 1545 1544 1543 1542 1541 1540 1539 1538 1537 1536 1534 1533 1532 1530 1529 1527 1526 1524 1523 1522 1520 1518 1517 1516 1514 1513 1513 1512 1511 1510 1509 1508 1508 1507 1507 1507 1507 1506 1506 1506 1506 1505 1504 1504 1505 1504 1504 1504 1504 1505 1505 1506 1506 1508 1510 1511 1512 1513 1514 1515 1517 1518 1519 1519 1519 1520 1520 1520 1520 1520 1521 1521 1521 1522 1522 1523 1523 1524 1525 1526 1527
1548 1547 1547 1547 1546 1545 1544 1543 1543 1542 1541 1540 1539 1537 1536 1535 1534 1532 1531 1529 1528 1527 1525 1524 1522 1521 1520 1519 1518 1516 1515 1514 1513 1513 1512 1511 1511 1511 1510 1510 1509 1509 1509 1508 1508 1507 1506 1506 1506 1506 1506 1506 1507 1508 1508 1508 1510 1511 1512 1513 1514 1516 1517 1518 1518 1519 1520 1520 1520 1520 1520 1520 1520 1520 1520 1521 1521 1522 1522 1523 1523 1524 1525 1526 1526
1548 1548 1547 1547 1546 1546 1545 1544 1543 1543 1542 1541 1540 1538 1537 1536 1535 1534 1533 1531 1530 1529 1527 1526 1525 1523 1522 1521 1520 1519 1518 1517 1516 1515 1514 1514 1513 1513 1512 1512 1511 1511 1511 1510 1510 1509 1509 1509 1508 1508 1509 1509 1509 1510 1511 1512 1513 1514 1514 1515 1517 1519 1520 1520 1520 1520 1521 1521 1521 1520 1520 1520 1519 1520 1520 1521 1522 1522 1523 1523 1524 1524 1525 1526 1526